�������ċp�F�����K�X���j�^�v���󋵏��
Date,Time,�ċp�F�����K�X���j�^(cps),����,����(m/s)
2022/06/24,00:00,1.4,��,8.0
2022/06/24,00:10,1.4,��,7.6
2022/06/24,00:20,1.4,��,8.7
2022/06/24,00:30,1.6,��,9.7
2022/06/24,00:40,1.4,��,6.7
2022/06/24,00:50,1.5,��,8.9
2022/06/24,01:00,1.4,��,8.8
2022/06/24,01:10,1.4,��,9.1
2022/06/24,01:20,1.5,��,7.4
2022/06/24,01:30,1.3,��,7.3
2022/06/24,01:40,1.4,��,7.8
2022/06/24,01:50,1.4,��,6.5
2022/06/24,02:00,1.5,��쐼,6.0
2022/06/24,02:10,1.4,��,7.5
2022/06/24,02:20,1.4,��,6.6
2022/06/24,02:30,1.4,��,7.4
2022/06/24,02:40,1.4,��,7.9
2022/06/24,02:50,1.5,��,6.9
2022/06/24,03:00,1.4,��,8.0
2022/06/24,03:10,1.5,��,7.7
2022/06/24,03:20,1.4,��,10.2
2022/06/24,03:30,1.4,��,11.6
2022/06/24,03:40,1.5,��,12.4
2022/06/24,03:50,1.5,��,11.6
2022/06/24,04:00,1.6,��,11.7
2022/06/24,04:10,1.5,��,11.8
2022/06/24,04:20,1.5,��,10.2
2022/06/24,04:30,1.4,��,10.0
2022/06/24,04:40,1.4,��,9.5
2022/06/24,04:50,1.4,��,9.2
2022/06/24,05:00,1.5,��쓌,10.0
2022/06/24,05:10,1.5,��,8.9
2022/06/24,05:20,1.5,��,8.0
2022/06/24,05:30,1.5,��,7.5
2022/06/24,05:40,1.4,��,8.0
2022/06/24,05:50,1.5,��,10.5
2022/06/24,06:00,1.6,��,11.7
2022/06/24,06:10,1.4,��,12.4
2022/06/24,06:20,1.4,��,11.6
2022/06/24,06:30,1.5,��,11.0
2022/06/24,06:40,1.5,��,10.8
2022/06/24,06:50,1.5,��,9.0
2022/06/24,07:00,1.5,��,7.8
2022/06/24,07:10,1.5,��,8.8
2022/06/24,07:20,1.4,��,10.0
2022/06/24,07:30,1.4,��,10.8
2022/06/24,07:40,1.5,��,11.6
2022/06/24,07:50,1.5,��,10.9
2022/06/24,08:00,1.5,��,8.8
2022/06/24,08:10,1.4,��,10.2
2022/06/24,08:20,1.4,��,6.9
2022/06/24,08:30,1.5,��쓌,8.5
2022/06/24,08:40,1.5,��,8.4
2022/06/24,08:50,1.4,��,9.1
2022/06/24,09:00,1.4,��,9.5
2022/06/24,09:10,1.5,��,9.1
2022/06/24,09:20,1.4,��,7.4
2022/06/24,09:30,1.5,��,7.6
2022/06/24,09:40,1.5,��,8.5
2022/06/24,09:50,1.5,��,8.0
2022/06/24,10:00,1.4,��,10.2
2022/06/24,10:10,1.5,��,11.3
2022/06/24,10:20,1.5,��,11.3
2022/06/24,10:30,1.5,��,10.6
2022/06/24,10:40,1.5,��,11.3
2022/06/24,10:50,1.5,��,10.2
2022/06/24,11:00,1.5,��,11.3
2022/06/24,11:10,1.5,��쓌,10.8
2022/06/24,11:20,1.5,��,11.6
2022/06/24,11:30,1.4,��,12.2
2022/06/24,11:40,1.5,��,11.1
2022/06/24,11:50,1.5,��,11.3
2022/06/24,12:00,1.4,��,9.8
2022/06/24,12:10,1.5,��,10.8
2022/06/24,12:20,1.5,��,10.7
2022/06/24,12:30,1.5,��,8.4
2022/06/24,12:40,1.4,��,6.0
2022/06/24,12:50,1.5,��,7.4
2022/06/24,13:00,1.5,��,6.6
2022/06/24,13:10,1.4,��,7.4
2022/06/24,13:20,1.5,��,8.3
2022/06/24,13:30,1.5,��,7.7
2022/06/24,13:40,1.4,��쓌,7.8
2022/06/24,13:50,1.5,��쓌,6.3
2022/06/24,14:00,1.5,��,7.5
2022/06/24,14:10,1.4,��,5.5
2022/06/24,14:20,1.5,��,5.7
2022/06/24,14:30,1.5,��,5.2
2022/06/24,14:40,1.4,��,6.1
2022/06/24,14:50,1.5,��,6.2
2022/06/24,15:00,1.4,��,6.4
2022/06/24,15:10,1.5,��,8.0
2022/06/24,15:20,1.5,��,6.7
2022/06/24,15:30,1.5,��,7.6
2022/06/24,15:40,1.5,��,6.6
2022/06/24,15:50,1.4,��,5.9
2022/06/24,16:00,1.5,��,5.6
2022/06/24,16:10,1.5,��,7.0
2022/06/24,16:20,1.4,��,9.5
2022/06/24,16:30,1.4,��,9.4
2022/06/24,16:40,1.5,��,7.9
2022/06/24,16:50,1.5,��,6.8
2022/06/24,17:00,1.5,��,6.7
2022/06/24,17:10,1.5,��,7.5
2022/06/24,17:20,1.5,��,7.0
2022/06/24,17:30,1.5,��,6.9
2022/06/24,17:40,1.4,��,5.2
2022/06/24,17:50,1.5,��,5.9
2022/06/24,18:00,1.4,��쐼,4.6
2022/06/24,18:10,1.5,��,4.4
2022/06/24,18:20,1.4,��,4.5
2022/06/24,18:30,1.4,��쓌,3.3
2022/06/24,18:40,1.4,��,3.0
2022/06/24,18:50,1.5,���k��,2.2
2022/06/24,19:00,1.5,�k,5.2
2022/06/24,19:10,1.5,�k,7.4
2022/06/24,19:20,1.4,�k,6.8
2022/06/24,19:30,1.5,�k,6.9
2022/06/24,19:40,1.4,�k,5.5
2022/06/24,19:50,1.5,�k,4.5
2022/06/24,20:00,1.4,�k,3.9
2022/06/24,20:10,1.5,�k�k��,2.5
2022/06/24,20:20,1.5,�k�k��,2.8
2022/06/24,20:30,1.5,�k�k��,3.2
2022/06/24,20:40,1.5,�k�k��,3.8
2022/06/24,20:50,1.4,�k�k��,3.5
2022/06/24,21:00,1.5,�k,1.9
2022/06/24,21:10,1.5,�k�k��,0.9
2022/06/24,21:20,1.4,-,CALM
2022/06/24,21:30,1.5,���k��,0.6
2022/06/24,21:40,1.5,��,0.6
2022/06/24,21:50,1.4,��쐼,0.6
2022/06/24,22:00,1.5,-,CALM
2022/06/24,22:10,1.4,-,CALM
2022/06/24,22:20,1.5,��,0.9
2022/06/24,22:30,1.5,��,1.4
2022/06/24,22:40,1.5,��쐼,1.2
2022/06/24,22:50,1.5,-,CALM
2022/06/24,23:00,1.4,-,CALM
2022/06/24,23:10,1.4,-,CALM
2022/06/24,23:20,1.5,��쓌,1.2
2022/06/24,23:30,1.5,��쓌,0.8
2022/06/24,23:40,1.5,��,0.9
2022/06/24,23:50,1.4,���쐼,0.8
